Time,TemperatureF,DewpointF,PressureIn,WindDirection,WindDirectionDegrees,WindSpeedMPH,WindSpeedGustMPH,Humidity,HourlyPrecipIn,Conditions,Clouds,dailyrainin,SolarRadiationWatts/m^2,SoftwareType,DateUTC
2013-03-09 00:00:00,27.0,25.0,-100.00,ESE,112,1.0,-999.0,91,-99.99,,,-99.99,0.000000,,2013-03-09 05:00:00,
2013-03-09 00:43:00,27.0,25.0,-100.00,ESE,112,1.0,-999.0,91,-99.99,,,-99.99,0.000000,,2013-03-09 05:43:00,
2013-03-09 00:53:00,27.0,25.0,-100.00,ESE,112,1.0,-999.0,91,-99.99,,,-99.99,0.000000,,2013-03-09 05:53:00,
2013-03-09 01:00:00,26.0,24.0,-100.00,ESE,112,1.0,-999.0,91,-99.99,,,-99.99,0.000000,,2013-03-09 06:00:00,
2013-03-09 01:32:00,26.0,24.0,-100.00,ESE,112,1.0,-999.0,91,-99.99,,,-99.99,0.000000,,2013-03-09 06:32:00,
2013-03-09 01:42:00,26.0,24.0,-100.00,ESE,112,1.0,-999.0,91,-99.99,,,-99.99,0.000000,,2013-03-09 06:42:00,
2013-03-09 01:52:00,26.0,24.0,-100.00,ESE,112,1.0,-999.0,91,-99.99,,,-99.99,0.000000,,2013-03-09 06:52:00,
2013-03-09 02:00:00,28.0,25.0,-100.00,SSE,157,1.0,-999.0,90,-99.99,,,-99.99,0.000000,,2013-03-09 07:00:00,
2013-03-09 02:32:00,28.0,25.0,-100.00,SSE,157,1.0,-999.0,90,-99.99,,,-99.99,0.000000,,2013-03-09 07:32:00,
2013-03-09 02:42:00,28.0,25.0,-100.00,SSE,157,1.0,-999.0,90,-99.99,,,-99.99,0.000000,,2013-03-09 07:42:00,
2013-03-09 02:52:00,28.0,25.0,-100.00,SSE,157,1.0,-999.0,90,-99.99,,,-99.99,0.000000,,2013-03-09 07:52:00,
2013-03-09 03:00:00,28.0,24.0,-100.00,SSE,157,0.0,-999.0,84,-99.99,,,-99.99,0.000000,,2013-03-09 08:00:00,
2013-03-09 03:42:00,28.0,24.0,-100.00,SSE,157,0.0,-999.0,84,-99.99,,,-99.99,0.000000,,2013-03-09 08:42:00,
2013-03-09 03:52:00,28.0,24.0,-100.00,SSE,157,0.0,-999.0,84,-99.99,,,-99.99,0.000000,,2013-03-09 08:52:00,
2013-03-09 04:00:00,26.0,23.0,-100.00,SSE,157,0.0,-999.0,89,-99.99,,,-99.99,0.000000,,2013-03-09 09:00:00,
2013-03-09 04:32:00,26.0,23.0,-100.00,SSE,157,0.0,-999.0,89,-99.99,,,-99.99,0.000000,,2013-03-09 09:32:00,
2013-03-09 04:42:00,26.0,23.0,-100.00,SSE,157,0.0,-999.0,89,-99.99,,,-99.99,0.000000,,2013-03-09 09:42:00,
2013-03-09 04:52:00,26.0,23.0,-100.00,SSE,157,0.0,-999.0,89,-99.99,,,-99.99,0.000000,,2013-03-09 09:52:00,
2013-03-09 05:00:00,25.0,23.0,-100.00,SE,135,0.0,-999.0,92,-99.99,,,-99.99,0.000000,,2013-03-09 10:00:00,
2013-03-09 05:42:00,25.0,23.0,-100.00,SE,135,0.0,-999.0,92,-99.99,,,-99.99,0.000000,,2013-03-09 10:42:00,
2013-03-09 05:52:00,25.0,23.0,-100.00,SE,135,0.0,-999.0,92,-99.99,,,-99.99,0.000000,,2013-03-09 10:52:00,
2013-03-09 06:00:00,25.0,23.0,-100.00,ESE,112,0.0,-999.0,92,-99.99,,,-99.99,0.000000,,2013-03-09 11:00:00,
2013-03-09 06:42:00,25.0,23.0,-100.00,ESE,112,0.0,-999.0,92,-99.99,,,-99.99,0.000000,,2013-03-09 11:42:00,
2013-03-09 06:52:00,25.0,23.0,-100.00,ESE,112,0.0,-999.0,92,-99.99,,,-99.99,0.000000,,2013-03-09 11:52:00,
2013-03-09 07:00:00,24.0,22.0,-100.00,ESE,112,0.0,-999.0,93,-99.99,,,-99.99,1.160000,,2013-03-09 12:00:00,
2013-03-09 07:42:00,24.0,22.0,-100.00,ESE,112,0.0,-999.0,93,-99.99,,,-99.99,1.160000,,2013-03-09 12:42:00,
2013-03-09 07:52:00,24.0,22.0,-100.00,ESE,112,0.0,-999.0,93,-99.99,,,-99.99,1.160000,,2013-03-09 12:52:00,
2013-03-09 08:00:00,27.0,25.0,-100.00,SE,135,0.0,-999.0,92,-99.99,,,-99.99,66.120003,,2013-03-09 13:00:00,
2013-03-09 08:42:00,27.0,25.0,-100.00,SE,135,0.0,-999.0,92,-99.99,,,-99.99,66.120003,,2013-03-09 13:42:00,
2013-03-09 08:52:00,27.0,25.0,-100.00,SE,135,0.0,-999.0,92,-99.99,,,-99.99,66.120003,,2013-03-09 13:52:00,
2013-03-09 09:00:00,32.0,27.0,-100.00,SSE,157,5.0,-999.0,80,-99.99,,,-99.99,235.479996,,2013-03-09 14:00:00,
2013-03-09 09:42:00,32.0,27.0,-100.00,SSE,157,5.0,-999.0,80,-99.99,,,-99.99,235.479996,,2013-03-09 14:42:00,
2013-03-09 09:52:00,32.0,27.0,-100.00,SSE,157,5.0,-999.0,80,-99.99,,,-99.99,235.479996,,2013-03-09 14:52:00,
2013-03-09 10:00:00,36.0,27.0,-100.00,SSE,157,7.0,-999.0,69,-99.99,,,-99.99,408.320007,,2013-03-09 15:00:00,
2013-03-09 10:42:00,36.0,27.0,-100.00,SSE,157,7.0,-999.0,69,-99.99,,,-99.99,408.320007,,2013-03-09 15:42:00,
2013-03-09 10:52:00,36.0,27.0,-100.00,SSE,157,7.0,-999.0,69,-99.99,,,-99.99,408.320007,,2013-03-09 15:52:00,
2013-03-09 11:00:00,38.0,27.0,-100.00,SSE,157,8.0,-999.0,62,-99.99,,,-99.99,396.720001,,2013-03-09 16:00:00,
2013-03-09 11:32:00,38.0,27.0,-100.00,SSE,157,8.0,-999.0,62,-99.99,,,-99.99,396.720001,,2013-03-09 16:32:00,
2013-03-09 11:42:00,38.0,27.0,-100.00,SSE,157,8.0,-999.0,62,-99.99,,,-99.99,396.720001,,2013-03-09 16:42:00,
2013-03-09 11:52:00,38.0,27.0,-100.00,SSE,157,8.0,-999.0,62,-99.99,,,-99.99,396.720001,,2013-03-09 16:52:00,
2013-03-09 12:00:00,41.0,28.0,-100.00,SE,135,8.0,-999.0,59,-99.99,,,-99.99,591.599976,,2013-03-09 17:00:00,
2013-03-09 12:42:00,41.0,28.0,-100.00,SE,135,8.0,-999.0,59,-99.99,,,-99.99,591.599976,,2013-03-09 17:42:00,
2013-03-09 12:52:00,41.0,28.0,-100.00,SE,135,8.0,-999.0,59,-99.99,,,-99.99,591.599976,,2013-03-09 17:52:00,
2013-03-09 13:00:00,41.0,28.0,-100.00,SE,135,6.0,-999.0,59,-99.99,,,-99.99,419.920013,,2013-03-09 18:00:00,
2013-03-09 13:42:00,41.0,28.0,-100.00,SE,135,6.0,-999.0,59,-99.99,,,-99.99,419.920013,,2013-03-09 18:42:00,
2013-03-09 13:52:00,41.0,28.0,-100.00,SE,135,6.0,-999.0,59,-99.99,,,-99.99,419.920013,,2013-03-09 18:52:00,
2013-03-09 14:00:00,43.0,29.0,-100.00,SE,135,7.0,-999.0,59,-99.99,,,-99.99,470.959991,,2013-03-09 19:00:00,
2013-03-09 14:42:00,43.0,29.0,-100.00,SE,135,7.0,-999.0,59,-99.99,,,-99.99,470.959991,,2013-03-09 19:42:00,
2013-03-09 14:52:00,43.0,29.0,-100.00,SE,135,7.0,-999.0,59,-99.99,,,-99.99,470.959991,,2013-03-09 19:52:00,
2013-03-09 15:00:00,42.0,30.0,-100.00,SE,135,8.0,-999.0,61,-99.99,,,-99.99,283.040009,,2013-03-09 20:00:00,
2013-03-09 15:42:00,42.0,30.0,-100.00,SE,135,8.0,-999.0,61,-99.99,,,-99.99,283.040009,,2013-03-09 20:42:00,
2013-03-09 15:52:00,42.0,30.0,-100.00,SE,135,8.0,-999.0,61,-99.99,,,-99.99,283.040009,,2013-03-09 20:52:00,
2013-03-09 16:00:00,41.0,30.0,-100.00,SE,135,10.0,-999.0,64,-99.99,,,-99.99,309.720001,,2013-03-09 21:00:00,
2013-03-09 16:42:00,41.0,30.0,-100.00,SE,135,10.0,-999.0,64,-99.99,,,-99.99,309.720001,,2013-03-09 21:42:00,
2013-03-09 16:52:00,41.0,30.0,-100.00,SE,135,10.0,-999.0,64,-99.99,,,-99.99,309.720001,,2013-03-09 21:52:00,
2013-03-09 17:00:00,40.0,30.0,-100.00,ESE,112,8.0,-999.0,65,-99.99,,,-99.99,208.800003,,2013-03-09 22:00:00,
2013-03-09 17:42:00,40.0,30.0,-100.00,ESE,112,8.0,-999.0,65,-99.99,,,-99.99,208.800003,,2013-03-09 22:42:00,
2013-03-09 17:52:00,40.0,30.0,-100.00,ESE,112,8.0,-999.0,65,-99.99,,,-99.99,208.800003,,2013-03-09 22:52:00,
2013-03-09 18:00:00,38.0,29.0,-100.00,SE,135,9.0,-999.0,70,-99.99,,,-99.99,75.400002,,2013-03-09 23:00:00,
2013-03-09 18:42:00,38.0,29.0,-100.00,SE,135,9.0,-999.0,70,-99.99,,,-99.99,75.400002,,2013-03-09 23:42:00,
2013-03-09 18:52:00,38.0,29.0,-100.00,SE,135,9.0,-999.0,70,-99.99,,,-99.99,75.400002,,2013-03-09 23:52:00,
2013-03-09 19:00:00,36.0,28.0,-100.00,SE,135,10.0,-999.0,74,-99.99,,,-99.99,5.800000,,2013-03-10 00:00:00,
2013-03-09 19:43:00,36.0,28.0,-100.00,SE,135,10.0,-999.0,74,-99.99,,,-99.99,5.800000,,2013-03-10 00:43:00,
2013-03-09 19:52:00,36.0,28.0,-100.00,SE,135,10.0,-999.0,74,-99.99,,,-99.99,5.800000,,2013-03-10 00:52:00,
2013-03-09 20:00:00,35.0,29.0,-100.00,SE,135,11.0,-999.0,77,-99.99,,,-99.99,0.000000,,2013-03-10 01:00:00,
2013-03-09 20:42:00,35.0,29.0,-100.00,SE,135,11.0,-999.0,77,-99.99,,,-99.99,0.000000,,2013-03-10 01:42:00,
2013-03-09 20:52:00,35.0,29.0,-100.00,SE,135,11.0,-999.0,77,-99.99,,,-99.99,0.000000,,2013-03-10 01:52:00,
2013-03-09 21:00:00,35.0,29.0,-100.00,SE,135,10.0,-999.0,80,-99.99,,,-99.99,0.000000,,2013-03-10 02:00:00,
2013-03-09 21:42:00,35.0,29.0,-100.00,SE,135,10.0,-999.0,80,-99.99,,,-99.99,0.000000,,2013-03-10 02:42:00,
2013-03-09 21:52:00,35.0,29.0,-100.00,SE,135,10.0,-999.0,80,-99.99,,,-99.99,0.000000,,2013-03-10 02:52:00,
2013-03-09 22:00:00,34.0,30.0,-100.00,SE,135,6.0,-999.0,83,-99.99,,,-99.99,0.000000,,2013-03-10 03:00:00,
2013-03-09 22:42:00,34.0,30.0,-100.00,SE,135,6.0,-999.0,83,-99.99,,,-99.99,0.000000,,2013-03-10 03:42:00,
2013-03-09 22:52:00,34.0,30.0,-100.00,SE,135,6.0,-999.0,83,-99.99,,,-99.99,0.000000,,2013-03-10 03:52:00,
2013-03-09 23:00:00,34.0,30.0,-100.00,ESE,112,4.0,-999.0,84,-99.99,,,-99.99,0.000000,,2013-03-10 04:00:00,
2013-03-09 23:42:00,34.0,30.0,-100.00,ESE,112,4.0,-999.0,84,-99.99,,,-99.99,0.000000,,2013-03-10 04:42:00,
2013-03-09 23:52:00,34.0,30.0,-100.00,ESE,112,4.0,-999.0,84,-99.99,,,-99.99,0.000000,,2013-03-10 04:52:00,